EZY39GY DTNH-EGNT

Flight info

Callsign EZY39GY
Flight time 3h 13m
Altitude 36000
Route VAXAL1D VAXAL A411 TUC UM733 OSMAR DCT PIRIX DCT CAR DCT GIGGI DCT UPDUT DCT CORSI DCT OMEDA DCT MERLU DCT PIGOS DCT BARSO DCT OKTET DCT GIPNO DCT BULOL DCT IDAVO DCT BAGBI DCT SIZZA DCT LAULY DCT BRY DCT CLM DCT KOPOR DCT VESAN DCT RATUK DCT SOVAT L613 MAMUL UY250 RIMTO
Aircraft A320/M-SDE2E3FGHIJ1RWXYZ/LB1

Departure

Time 2026-05-04 11:37
Airport Enfidha - Hammamet International Airport (DTNH)

Arrival

Time 2026-05-04 14:51
Airport Newcastle International Airport (EGNT)
Time Latitude Longitude Altitude Speed Heading
2026-05-04 10:35 36.08334 10.43614 17 ft 0 kts 135°
2026-05-04 11:23 36.08333 10.43616 16 ft 0 kts 135°
2026-05-04 11:27 36.08366 10.43549 17 ft 4 kts 102°
2026-05-04 11:28 36.08369 10.43539 16 ft 4 kts 83°
2026-05-04 11:28 36.08369 10.43520 16 ft 4 kts
2026-05-04 11:28 36.08358 10.43517 19 ft 0 kts 51°
2026-05-04 11:28 36.08358 10.43519 19 ft 1 kts 70°
2026-05-04 11:29 36.08342 10.43519 16 ft 5 kts 188°
2026-05-04 11:29 36.08333 10.43517 17 ft 0 kts 187°
2026-05-04 11:29 36.08330 10.43517 17 ft 1 kts 187°
2026-05-04 11:29 36.08322 10.43516 19 ft 0 kts 185°
2026-05-04 11:31 36.08047 10.43345 30 ft 20 kts 269°
2026-05-04 11:33 36.07753 10.42370 33 ft 26 kts 271°
2026-05-04 11:33 36.07753 10.42136 30 ft 27 kts 270°
2026-05-04 11:33 36.07684 10.42045 30 ft 13 kts 173°
2026-05-04 11:34 36.07599 10.42075 31 ft 13 kts 139°
2026-05-04 11:34 36.07582 10.42152 32 ft 0 kts 90°
2026-05-04 11:34 36.07582 10.42158 32 ft 1 kts 89°
2026-05-04 11:34 36.07582 10.42164 32 ft 0 kts 89°
2026-05-04 11:36 36.07582 10.42201 32 ft 24 kts 90°
2026-05-04 11:37 36.07580 10.42733 31 ft 96 kts 90°
2026-05-04 11:37 36.07575 10.43798 31 ft 150 kts 90°
2026-05-04 11:37 36.07525 10.45180 432 ft 165 kts 95°
2026-05-04 11:37 36.07675 10.46582 1071 ft 169 kts 67°
2026-05-04 11:38 36.08478 10.47711 1478 ft 189 kts 32°
2026-05-04 11:38 36.09806 10.48158 1725 ft 213 kts
2026-05-04 11:38 36.11367 10.48317 1993 ft 237 kts
2026-05-04 11:38 36.13091 10.48478 2311 ft 261 kts
2026-05-04 11:39 36.14954 10.48647 2879 ft 273 kts
2026-05-04 11:39 36.16865 10.48827 3637 ft 278 kts
2026-05-04 11:40 36.28585 10.49708 8424 ft 285 kts 348°
2026-05-04 11:41 36.30489 10.49045 9308 ft 285 kts 336°
2026-05-04 11:41 36.32360 10.48203 10088 ft 287 kts 340°
2026-05-04 11:41 36.34326 10.47470 10408 ft 307 kts 342°
2026-05-04 11:41 36.36468 10.46742 10618 ft 329 kts 342°
2026-05-04 11:42 36.38676 10.46013 11115 ft 338 kts 343°
2026-05-04 11:42 36.40965 10.45259 11748 ft 342 kts 343°
2026-05-04 11:42 36.43275 10.44485 12435 ft 345 kts 342°
2026-05-04 11:42 36.45604 10.43686 13129 ft 349 kts 342°
2026-05-04 11:43 36.47954 10.42864 13796 ft 353 kts 342°
2026-05-04 11:43 36.50325 10.42027 14392 ft 356 kts 341°
2026-05-04 11:43 36.52708 10.41183 14991 ft 358 kts 341°
2026-05-04 11:43 36.55109 10.40329 15591 ft 360 kts 341°
2026-05-04 11:44 36.57499 10.39478 16171 ft 363 kts 341°
2026-05-04 11:44 36.59934 10.38613 16746 ft 366 kts 341°
2026-05-04 11:44 36.62386 10.37747 17325 ft 368 kts 341°
2026-05-04 11:44 36.64859 10.36870 17869 ft 371 kts 341°
2026-05-04 11:45 36.67347 10.35988 18393 ft 374 kts 341°
2026-05-04 11:45 36.69861 10.35098 18867 ft 376 kts 341°
2026-05-04 11:45 36.72383 10.34205 19338 ft 379 kts 341°
2026-05-04 11:45 36.74928 10.33303 19784 ft 381 kts 341°
2026-05-04 11:46 36.77453 10.32405 20238 ft 384 kts 341°
2026-05-04 11:46 36.80031 10.31492 20677 ft 386 kts 341°
2026-05-04 11:46 36.82620 10.30576 21113 ft 389 kts 341°
2026-05-04 11:46 36.85230 10.29650 21549 ft 391 kts 341°
2026-05-04 11:47 36.87855 10.28714 21982 ft 394 kts 341°
2026-05-04 11:47 36.90495 10.27773 22408 ft 396 kts 341°
2026-05-04 11:47 36.93144 10.26825 22823 ft 398 kts 341°
2026-05-04 11:47 36.95821 10.25866 23230 ft 401 kts 341°
2026-05-04 11:48 36.98495 10.24911 23622 ft 403 kts 340°
2026-05-04 11:48 37.01176 10.23951 23949 ft 405 kts 340°
2026-05-04 11:48 37.03896 10.22979 24299 ft 407 kts 340°
2026-05-04 11:48 37.06615 10.22007 24629 ft 409 kts 340°
2026-05-04 11:49 37.09357 10.21023 24961 ft 410 kts 340°
2026-05-04 11:49 37.12116 10.20032 25288 ft 412 kts 340°
2026-05-04 11:49 37.14874 10.19042 25614 ft 414 kts 340°
2026-05-04 11:49 37.17643 10.18046 25943 ft 415 kts 340°
2026-05-04 11:50 37.20429 10.17045 26257 ft 417 kts 340°
2026-05-04 11:50 37.23179 10.16060 26566 ft 419 kts 340°
2026-05-04 11:50 37.25998 10.15050 26877 ft 420 kts 340°
2026-05-04 11:50 37.28804 10.14037 27192 ft 422 kts 340°
2026-05-04 11:51 37.31636 10.13015 27493 ft 424 kts 340°
2026-05-04 11:51 37.34476 10.11990 27799 ft 425 kts 340°
2026-05-04 11:51 37.37319 10.10964 28100 ft 427 kts 339°
2026-05-04 11:51 37.40183 10.09927 28400 ft 429 kts 339°
2026-05-04 11:52 37.43054 10.08884 28695 ft 430 kts 339°
2026-05-04 11:52 37.45941 10.07837 28992 ft 432 kts 339°
2026-05-04 11:52 37.48828 10.06793 29255 ft 433 kts 339°
2026-05-04 11:52 37.51693 10.05757 29536 ft 434 kts 339°
2026-05-04 11:53 37.54644 10.04688 29807 ft 436 kts 339°
2026-05-04 11:53 37.57522 10.03641 30069 ft 437 kts 339°
2026-05-04 11:53 37.60441 10.02578 30299 ft 438 kts 339°
2026-05-04 11:53 37.63375 10.01511 30577 ft 438 kts 339°
2026-05-04 11:55 37.83595 9.94143 32758 ft 429 kts 338°
2026-05-04 11:55 37.86461 9.93091 33079 ft 427 kts 338°
2026-05-04 11:56 37.89308 9.92048 33384 ft 426 kts 338°
2026-05-04 11:56 37.92152 9.91003 33699 ft 425 kts 338°
2026-05-04 11:56 37.94993 9.89961 34001 ft 424 kts 338°
2026-05-04 11:56 37.97810 9.88929 34276 ft 422 kts 338°
2026-05-04 11:57 38.00633 9.87894 34532 ft 421 kts 338°
2026-05-04 11:57 38.03451 9.86860 34772 ft 420 kts 338°
2026-05-04 11:57 38.06261 9.85825 35010 ft 419 kts 338°
2026-05-04 11:57 38.09022 9.84808 35237 ft 418 kts 338°
2026-05-04 11:58 38.11811 9.83779 35466 ft 418 kts 338°
2026-05-04 11:58 38.14600 9.82752 35665 ft 417 kts 338°
2026-05-04 11:58 38.17383 9.81724 35855 ft 417 kts 338°
2026-05-04 11:58 38.20168 9.80692 36018 ft 417 kts 338°
2026-05-04 11:59 38.22963 9.79658 36082 ft 420 kts 338°
2026-05-04 11:59 38.28639 9.77613 36082 ft 429 kts 339°
2026-05-04 12:00 38.34430 9.75766 36080 ft 433 kts 340°
2026-05-04 12:00 38.40289 9.73968 36082 ft 433 kts 340°
2026-05-04 12:01 38.46133 9.72115 36084 ft 432 kts 340°
2026-05-04 12:02 38.66660 9.65464 36109 ft 436 kts 340°
2026-05-04 12:03 38.72544 9.63564 36111 ft 436 kts 340°
2026-05-04 12:03 38.78421 9.61663 36112 ft 435 kts 340°
2026-05-04 12:04 38.84243 9.59762 36116 ft 434 kts 340°
2026-05-04 12:04 38.90091 9.57849 36117 ft 434 kts 340°
2026-05-04 12:05 38.95941 9.55917 36117 ft 434 kts 339°
2026-05-04 12:05 39.01774 9.53957 36111 ft 433 kts 339°
2026-05-04 12:06 39.07562 9.52004 36113 ft 433 kts 339°
2026-05-04 12:06 39.13399 9.50062 36112 ft 434 kts 340°
2026-05-04 12:07 39.19286 9.48310 36105 ft 435 kts 341°
2026-05-04 12:07 39.25206 9.46623 36106 ft 436 kts 341°
2026-05-04 12:08 39.31077 9.44908 36102 ft 436 kts 341°
2026-05-04 12:08 39.36981 9.43142 36107 ft 436 kts 340°
2026-05-04 12:09 39.42904 9.41369 36114 ft 437 kts 340°
2026-05-04 12:09 39.48833 9.39596 36128 ft 437 kts 340°
2026-05-04 12:10 39.54720 9.37836 36139 ft 438 kts 340°
2026-05-04 12:10 39.60659 9.36056 36186 ft 436 kts 340°
2026-05-04 12:11 39.66545 9.34286 36195 ft 433 kts 340°
2026-05-04 12:11 39.72403 9.32527 36188 ft 432 kts 339°
2026-05-04 12:12 39.78244 9.30769 36169 ft 431 kts 339°
2026-05-04 12:12 39.84036 9.29009 36131 ft 430 kts 339°
2026-05-04 12:14 40.07349 9.21936 36099 ft 431 kts 339°
2026-05-04 12:15 40.13181 9.20159 36097 ft 431 kts 338°
2026-05-04 12:15 40.19026 9.18384 36097 ft 431 kts 338°
2026-05-04 12:16 40.24882 9.16595 36093 ft 432 kts 338°
2026-05-04 12:16 40.30680 9.14801 36107 ft 430 kts 338°
2026-05-04 12:17 40.36485 9.12969 36107 ft 429 kts 338°
2026-05-04 12:17 40.42284 9.11144 36101 ft 428 kts 337°
2026-05-04 12:18 40.47093 9.09629 36101 ft 428 kts 337°
2026-05-04 12:18 40.53821 9.07522 36102 ft 428 kts 338°
2026-05-04 12:19 40.59612 9.05701 36096 ft 428 kts 337°
2026-05-04 12:19 40.65397 9.03869 36099 ft 428 kts 337°
2026-05-04 12:20 40.70210 9.02343 36097 ft 428 kts 337°
2026-05-04 12:20 40.76008 9.00505 36096 ft 428 kts 338°
2026-05-04 12:21 40.82735 8.98377 36090 ft 428 kts 337°
2026-05-04 12:21 40.88529 8.96532 36084 ft 428 kts 337°
2026-05-04 12:22 40.93347 8.94997 36075 ft 429 kts 338°
2026-05-04 12:22 40.99150 8.93144 36062 ft 428 kts 337°
2026-05-04 12:23 41.05884 8.90984 36073 ft 429 kts 338°
2026-05-04 12:23 41.10712 8.89436 36075 ft 429 kts 338°
2026-05-04 12:24 41.16517 8.87570 36078 ft 430 kts 338°
2026-05-04 12:24 41.22332 8.85705 36084 ft 430 kts 338°
2026-05-04 12:25 41.28103 8.83703 36090 ft 426 kts 334°
2026-05-04 12:25 41.33711 8.81242 36094 ft 424 kts 332°
2026-05-04 12:26 41.39233 8.78649 36093 ft 424 kts 332°
2026-05-04 12:26 41.44818 8.76075 36089 ft 425 kts 333°
2026-05-04 12:27 41.50422 8.73571 36082 ft 426 kts 333°
2026-05-04 12:27 41.56045 8.71076 36081 ft 426 kts 333°
2026-05-04 12:28 41.61640 8.68575 36058 ft 426 kts 333°
2026-05-04 12:28 41.67266 8.66050 36060 ft 427 kts 333°
2026-05-04 12:29 41.72883 8.63516 36059 ft 427 kts 333°
2026-05-04 12:29 41.78535 8.60967 36062 ft 428 kts 333°
2026-05-04 12:30 41.84143 8.58439 36061 ft 428 kts 333°
2026-05-04 12:30 41.89797 8.55877 36060 ft 429 kts 333°
2026-05-04 12:31 41.95445 8.53313 36063 ft 429 kts 333°
2026-05-04 12:31 42.01098 8.50741 36060 ft 429 kts 333°
2026-05-04 12:32 42.09548 8.46889 36059 ft 429 kts 333°
2026-05-04 12:33 42.15211 8.44308 36062 ft 430 kts 333°
2026-05-04 12:33 42.20870 8.41719 36060 ft 430 kts 333°
2026-05-04 12:34 42.26508 8.39135 36062 ft 430 kts 333°
2026-05-04 12:34 42.32162 8.36511 36055 ft 428 kts 329°
2026-05-04 12:35 42.37356 8.32865 36057 ft 419 kts 323°
2026-05-04 12:35 42.42458 8.29040 36058 ft 420 kts 323°
2026-05-04 12:36 42.47576 8.25204 36063 ft 420 kts 323°
2026-05-04 12:36 42.52658 8.21389 36066 ft 420 kts 323°
2026-05-04 12:37 42.57775 8.17535 36070 ft 421 kts 323°
2026-05-04 12:37 42.62887 8.13677 36071 ft 421 kts 323°
2026-05-04 12:38 42.68010 8.09805 36073 ft 421 kts 323°
2026-05-04 12:38 42.73101 8.05945 36075 ft 422 kts 323°
2026-05-04 12:39 42.78241 8.02047 36054 ft 424 kts 323°
2026-05-04 12:39 42.83404 7.98126 36047 ft 426 kts 323°
2026-05-04 12:40 42.88589 7.94180 36052 ft 428 kts 323°
2026-05-04 12:40 42.93795 7.90210 36058 ft 429 kts 323°
2026-05-04 12:41 42.98965 7.86259 36066 ft 430 kts 323°
2026-05-04 12:41 43.04182 7.82260 36064 ft 430 kts 323°
2026-05-04 12:42 43.09419 7.78250 36061 ft 431 kts 323°
2026-05-04 12:42 43.14655 7.74216 36072 ft 432 kts 323°
2026-05-04 12:43 43.19855 7.70192 36072 ft 433 kts 323°
2026-05-04 12:43 43.25100 7.66121 36077 ft 434 kts 323°
2026-05-04 12:44 43.30358 7.62041 36073 ft 434 kts 323°
2026-05-04 12:44 43.35616 7.57954 36077 ft 435 kts 323°
2026-05-04 12:45 43.40851 7.53865 36078 ft 436 kts 323°
2026-05-04 12:45 43.46123 7.49746 36084 ft 437 kts 323°
2026-05-04 12:46 43.51408 7.45610 36086 ft 437 kts 323°
2026-05-04 12:46 43.56703 7.41471 36085 ft 437 kts 323°
2026-05-04 12:47 43.61986 7.37315 36088 ft 438 kts 323°
2026-05-04 12:47 43.67109 7.32908 36082 ft 435 kts 320°
2026-05-04 12:48 43.72108 7.28212 36078 ft 435 kts 319°
2026-05-04 12:48 43.77122 7.23482 36084 ft 437 kts 320°
2026-05-04 12:49 43.82181 7.18811 36087 ft 437 kts 320°
2026-05-04 12:49 43.87222 7.14191 36085 ft 438 kts 320°
2026-05-04 12:50 43.92296 7.09517 36080 ft 437 kts 320°
2026-05-04 12:50 43.97366 7.04830 36097 ft 439 kts 320°
2026-05-04 12:51 44.02434 7.00131 36112 ft 439 kts 320°
2026-05-04 12:51 44.07484 6.95435 36110 ft 439 kts 320°
2026-05-04 12:52 44.12572 6.90698 36108 ft 442 kts 320°
2026-05-04 12:52 44.17725 6.85886 36112 ft 450 kts 320°
2026-05-04 12:53 44.22947 6.81013 36110 ft 452 kts 320°
2026-05-04 12:53 44.28174 6.76126 36114 ft 453 kts 320°
2026-05-04 12:54 44.33377 6.71243 36112 ft 453 kts 320°
2026-05-04 12:54 44.38598 6.66320 36108 ft 453 kts 320°
2026-05-04 12:55 44.43743 6.61460 36111 ft 454 kts 319°
2026-05-04 12:55 44.48948 6.56529 36113 ft 455 kts 320°
2026-05-04 12:56 44.54200 6.51561 36117 ft 456 kts 320°
2026-05-04 12:56 44.59458 6.46576 36112 ft 457 kts 320°
2026-05-04 12:57 44.64727 6.41562 36111 ft 457 kts 319°
2026-05-04 12:57 44.69963 6.36566 36120 ft 458 kts 320°
2026-05-04 12:58 44.75455 6.31914 36117 ft 463 kts 324°
2026-05-04 12:58 44.81124 6.27585 36111 ft 464 kts 326°
2026-05-04 12:59 44.86830 6.23285 36109 ft 465 kts 326°
2026-05-04 12:59 44.92523 6.18928 36095 ft 465 kts 326°
2026-05-04 13:00 44.98155 6.14560 36087 ft 466 kts 325°
2026-05-04 13:00 45.03832 6.10145 36073 ft 466 kts 326°
2026-05-04 13:01 45.09530 6.05720 36068 ft 467 kts 326°
2026-05-04 13:01 45.15238 6.01278 36051 ft 468 kts 325°
2026-05-04 13:02 45.20902 5.96855 36045 ft 469 kts 326°
2026-05-04 13:02 45.26631 5.92374 36034 ft 470 kts 326°
2026-05-04 13:03 45.32362 5.87897 36044 ft 471 kts 326°
2026-05-04 13:03 45.38080 5.83412 36046 ft 462 kts 325°
2026-05-04 13:04 45.43564 5.79103 36082 ft 449 kts 325°
2026-05-04 13:04 45.49015 5.74794 36069 ft 448 kts 325°
2026-05-04 13:05 45.54467 5.70480 36077 ft 449 kts 325°
2026-05-04 13:05 45.59929 5.66149 36074 ft 449 kts 325°
2026-05-04 13:06 45.65395 5.61815 36075 ft 450 kts 325°
2026-05-04 13:06 45.70828 5.57494 36067 ft 450 kts 325°
2026-05-04 13:07 45.76296 5.53128 36062 ft 450 kts 325°
2026-05-04 13:07 45.81764 5.48754 36051 ft 450 kts 325°
2026-05-04 13:08 45.87205 5.44384 36049 ft 451 kts 325°
2026-05-04 13:08 45.92674 5.39988 36043 ft 451 kts 325°
2026-05-04 13:09 45.98153 5.35588 36042 ft 452 kts 325°
2026-05-04 13:09 46.03639 5.31169 36036 ft 452 kts 325°
2026-05-04 13:10 46.09128 5.26725 36034 ft 453 kts 325°
2026-05-04 13:10 46.14591 5.22297 36038 ft 453 kts 325°
2026-05-04 13:11 46.20089 5.17836 36035 ft 453 kts 325°
2026-05-04 13:11 46.25586 5.13363 36039 ft 454 kts 325°
2026-05-04 13:12 46.31054 5.08905 36039 ft 454 kts 325°
2026-05-04 13:12 46.36550 5.04400 36039 ft 454 kts 325°
2026-05-04 13:13 46.42054 4.99873 36006 ft 457 kts 325°
2026-05-04 13:13 46.47601 4.95308 35994 ft 460 kts 325°
2026-05-04 13:14 46.53149 4.90738 35996 ft 462 kts 325°
2026-05-04 13:14 46.58756 4.86111 36005 ft 464 kts 325°
2026-05-04 13:15 46.64374 4.81468 36007 ft 465 kts 325°
2026-05-04 13:15 46.69998 4.76799 36015 ft 466 kts 325°
2026-05-04 13:16 46.75589 4.72143 36007 ft 466 kts 325°
2026-05-04 13:16 46.81230 4.67432 36004 ft 467 kts 325°
2026-05-04 13:17 46.86871 4.62723 36008 ft 467 kts 326°
2026-05-04 13:17 46.92509 4.57999 36010 ft 468 kts 326°
2026-05-04 13:18 46.98118 4.53285 36008 ft 468 kts 326°
2026-05-04 13:18 47.03770 4.48533 35997 ft 468 kts 326°
2026-05-04 13:19 47.09418 4.43759 36007 ft 468 kts 325°
2026-05-04 13:19 47.15060 4.38978 36000 ft 469 kts 326°
2026-05-04 13:20 47.20681 4.34214 35999 ft 469 kts 326°
2026-05-04 13:20 47.26324 4.29425 35995 ft 469 kts 326°
2026-05-04 13:21 47.31972 4.24608 35994 ft 469 kts 325°
2026-05-04 13:21 47.37626 4.19781 35994 ft 469 kts 326°
2026-05-04 13:22 47.43231 4.14986 35995 ft 469 kts 325°
2026-05-04 13:22 47.48866 4.10138 35983 ft 469 kts 325°
2026-05-04 13:23 47.54503 4.05277 35984 ft 469 kts 325°
2026-05-04 13:23 47.60145 4.00395 35986 ft 469 kts 326°
2026-05-04 13:24 47.65781 3.95530 35984 ft 469 kts 326°
2026-05-04 13:24 47.71380 3.90680 35978 ft 469 kts 326°
2026-05-04 13:25 47.79825 3.83325 35973 ft 469 kts 325°
2026-05-04 13:25 47.85452 3.78403 35977 ft 469 kts 325°
2026-05-04 13:26 47.91042 3.73507 35976 ft 469 kts 326°
2026-05-04 13:26 47.96668 3.68580 35976 ft 469 kts 326°
2026-05-04 13:27 48.02296 3.63634 35976 ft 469 kts 325°
2026-05-04 13:27 48.07918 3.58668 35976 ft 469 kts 325°
2026-05-04 13:28 48.13532 3.53692 35976 ft 469 kts 325°
2026-05-04 13:28 48.19153 3.48707 35973 ft 473 kts 326°
2026-05-04 13:29 48.24868 3.43626 35975 ft 482 kts 326°
2026-05-04 13:29 48.30628 3.38489 35977 ft 486 kts 326°
2026-05-04 13:30 48.36442 3.33292 35976 ft 486 kts 326°
2026-05-04 13:30 48.42386 3.28393 35976 ft 490 kts 334°
2026-05-04 13:31 48.48674 3.24411 35977 ft 490 kts 334°
2026-05-04 13:31 48.54792 3.20512 35979 ft 490 kts 334°
2026-05-04 13:32 48.61070 3.16479 35984 ft 491 kts 334°
2026-05-04 13:32 48.67356 3.12440 35987 ft 491 kts 334°
2026-05-04 13:33 48.73649 3.08387 35986 ft 490 kts 334°
2026-05-04 13:33 48.79884 3.04368 35968 ft 490 kts 334°
2026-05-04 13:34 48.86057 3.00032 35969 ft 486 kts 326°
2026-05-04 13:34 48.91903 2.94913 36248 ft 486 kts 327°
2026-05-04 13:35 48.94838 2.92344 36470 ft 485 kts 326°
2026-05-04 13:35 49.00640 2.87250 37017 ft 483 kts 327°
2026-05-04 13:35 49.03583 2.84668 37218 ft 482 kts 327°
2026-05-04 13:36 49.06437 2.82162 37428 ft 481 kts 327°
2026-05-04 13:36 49.09340 2.79610 37611 ft 480 kts 327°
2026-05-04 13:36 49.12230 2.77067 37821 ft 479 kts 327°
2026-05-04 13:36 49.15119 2.74515 37957 ft 479 kts 327°
2026-05-04 13:37 49.17999 2.71965 37973 ft 478 kts 327°
2026-05-04 13:37 49.23748 2.66867 37970 ft 478 kts 327°
2026-05-04 13:38 49.29526 2.61976 37968 ft 480 kts 336°
2026-05-04 13:38 49.35830 2.58526 37966 ft 481 kts 338°
2026-05-04 13:39 49.42146 2.55120 37974 ft 482 kts 338°
2026-05-04 13:39 49.48478 2.51695 37981 ft 482 kts 338°
2026-05-04 13:40 49.54764 2.48291 37984 ft 482 kts 338°
2026-05-04 13:40 49.61086 2.44850 37991 ft 483 kts 338°
2026-05-04 13:41 49.67418 2.41388 37993 ft 482 kts 338°
2026-05-04 13:41 49.73741 2.37926 37985 ft 481 kts 338°
2026-05-04 13:42 49.83192 2.32738 37987 ft 481 kts 338°
2026-05-04 13:42 49.89456 2.29279 37985 ft 481 kts 338°
2026-05-04 13:43 49.95755 2.25794 37990 ft 481 kts 338°
2026-05-04 13:43 50.02060 2.22301 37988 ft 481 kts 338°
2026-05-04 13:44 50.08368 2.18799 37988 ft 481 kts 338°
2026-05-04 13:44 50.14622 2.15325 37988 ft 481 kts 338°
2026-05-04 13:45 50.20461 2.10531 37980 ft 473 kts 320°
2026-05-04 13:45 50.25715 2.04328 37976 ft 474 kts 320°
2026-05-04 13:46 50.30964 1.98108 37989 ft 473 kts 320°
2026-05-04 13:46 50.36175 1.91909 37997 ft 474 kts 320°
2026-05-04 13:47 50.41424 1.85659 38010 ft 474 kts 320°
2026-05-04 13:47 50.46667 1.79408 38008 ft 474 kts 320°
2026-05-04 13:48 50.51921 1.73116 38020 ft 475 kts 320°
2026-05-04 13:48 50.57163 1.66816 38019 ft 475 kts 320°
2026-05-04 13:49 50.62408 1.60496 38017 ft 475 kts 320°
2026-05-04 13:49 50.67623 1.54198 38023 ft 475 kts 320°
2026-05-04 13:50 50.72860 1.47859 38022 ft 475 kts 320°
2026-05-04 13:50 50.78105 1.41490 38027 ft 475 kts 320°
2026-05-04 13:51 50.83335 1.35111 38028 ft 475 kts 320°
2026-05-04 13:51 50.88552 1.28797 38035 ft 475 kts 321°
2026-05-04 13:52 50.96663 1.19736 38043 ft 476 kts 323°
2026-05-04 13:53 51.02109 1.13775 38041 ft 476 kts 323°
2026-05-04 13:53 51.07528 1.07726 38038 ft 476 kts 323°
2026-05-04 13:54 51.15578 0.98607 38036 ft 476 kts 323°
2026-05-04 13:55 51.23668 0.89438 38028 ft 475 kts 323°
2026-05-04 13:55 51.31749 0.80249 38025 ft 476 kts 323°
2026-05-04 13:56 51.36758 0.74531 38028 ft 476 kts 323°
2026-05-04 13:57 51.44846 0.65279 38035 ft 476 kts 323°
2026-05-04 13:58 51.55562 0.52930 38043 ft 476 kts 322°
2026-05-04 13:58 51.63428 0.43838 38039 ft 476 kts 323°
2026-05-04 13:59 51.68801 0.37605 38041 ft 476 kts 323°
2026-05-04 14:00 51.76805 0.28262 38049 ft 475 kts 323°
2026-05-04 14:00 51.84832 0.18866 38050 ft 475 kts 323°
2026-05-04 14:01 51.90176 0.12590 38051 ft 474 kts 324°
2026-05-04 14:02 51.98765 0.04600 38046 ft 475 kts 330°
2026-05-04 14:02 52.04514 -0.00557 38063 ft 475 kts 330°
2026-05-04 14:03 52.10290 -0.05787 38063 ft 475 kts 330°
2026-05-04 14:03 52.16064 -0.11042 38059 ft 476 kts 330°
2026-05-04 14:04 52.24688 -0.18910 38065 ft 476 kts 329°
2026-05-04 14:04 52.30455 -0.24196 38071 ft 476 kts 330°
2026-05-04 14:05 52.39123 -0.32163 38084 ft 476 kts 330°
2026-05-04 14:06 52.44889 -0.37485 38084 ft 475 kts 329°
2026-05-04 14:06 52.50645 -0.42822 38083 ft 475 kts 330°
2026-05-04 14:07 52.56341 -0.48112 38084 ft 474 kts 329°
2026-05-04 14:07 52.62090 -0.53456 38080 ft 473 kts 329°
2026-05-04 14:08 52.67802 -0.58795 38073 ft 473 kts 329°
2026-05-04 14:08 52.73517 -0.64157 38079 ft 472 kts 329°
2026-05-04 14:09 52.82089 -0.72066 38081 ft 472 kts 332°
2026-05-04 14:10 52.90877 -0.79397 38073 ft 472 kts 333°
2026-05-04 14:10 52.96752 -0.84238 38079 ft 471 kts 333°
2026-05-04 14:11 53.02599 -0.89185 38081 ft 471 kts 332°
2026-05-04 14:11 53.11299 -0.96629 38084 ft 471 kts 332°
2026-05-04 14:12 53.17117 -1.01611 38090 ft 471 kts 332°
2026-05-04 14:13 53.25855 -1.09110 38099 ft 470 kts 332°
2026-05-04 14:13 53.31664 -1.14120 38039 ft 471 kts 332°
2026-05-04 14:13 53.34548 -1.16610 37308 ft 474 kts 333°
2026-05-04 14:14 53.37461 -1.19126 36743 ft 470 kts 333°
2026-05-04 14:14 53.43247 -1.24134 35428 ft 467 kts 334°
2026-05-04 14:14 53.46131 -1.26634 34738 ft 466 kts 335°
2026-05-04 14:15 53.51887 -1.31628 33212 ft 466 kts 335°
2026-05-04 14:15 53.57641 -1.36647 31578 ft 466 kts 335°
2026-05-04 14:16 53.63254 -1.41582 30535 ft 467 kts 335°
2026-05-04 14:16 53.66116 -1.44103 29974 ft 458 kts 335°
2026-05-04 14:17 53.71590 -1.48936 28939 ft 438 kts 335°
2026-05-04 14:17 53.74279 -1.51306 28475 ft 434 kts 335°
2026-05-04 14:17 53.79489 -1.55900 27801 ft 406 kts 335°
2026-05-04 14:18 53.81935 -1.58073 27340 ft 389 kts 335°
2026-05-04 14:18 53.86622 -1.62233 26403 ft 377 kts 334°
2026-05-04 14:19 53.91239 -1.66338 25500 ft 371 kts 334°
2026-05-04 14:19 53.93512 -1.68359 25056 ft 369 kts 334°
2026-05-04 14:19 53.95782 -1.70382 24627 ft 367 kts 334°
2026-05-04 14:19 53.98035 -1.72397 24206 ft 365 kts 333°
2026-05-04 14:20 54.00271 -1.74400 23776 ft 362 kts 333°
2026-05-04 14:20 54.02466 -1.76362 23315 ft 360 kts 333°
2026-05-04 14:20 54.04681 -1.78338 22815 ft 358 kts 333°
2026-05-04 14:21 54.09069 -1.82272 21846 ft 356 kts 333°
2026-05-04 14:21 54.11264 -1.84207 21377 ft 354 kts 336°
2026-05-04 14:21 54.13593 -1.85500 20914 ft 352 kts 349°
2026-05-04 14:21 54.16037 -1.85869 20437 ft 351 kts
2026-05-04 14:22 54.18455 -1.85348 20010 ft 350 kts 10°
2026-05-04 14:22 54.20849 -1.84585 19568 ft 349 kts
2026-05-04 14:22 54.23204 -1.83844 19140 ft 348 kts
2026-05-04 14:22 54.25586 -1.83099 18708 ft 348 kts
2026-05-04 14:23 54.30329 -1.81609 17794 ft 346 kts
2026-05-04 14:23 54.32695 -1.80863 17311 ft 345 kts
2026-05-04 14:23 54.35051 -1.80118 16961 ft 341 kts
2026-05-04 14:24 54.37353 -1.79391 16767 ft 333 kts
2026-05-04 14:24 54.39634 -1.78676 16237 ft 336 kts
2026-05-04 14:24 54.41950 -1.77954 15729 ft 338 kts
2026-05-04 14:24 54.44269 -1.77231 15230 ft 340 kts
2026-05-04 14:25 54.46596 -1.76504 14752 ft 357 kts
2026-05-04 14:25 54.51588 -1.74927 13503 ft 368 kts
2026-05-04 14:25 54.54095 -1.74127 12829 ft 362 kts
2026-05-04 14:26 54.56524 -1.73345 12182 ft 349 kts
2026-05-04 14:26 54.58871 -1.72584 11549 ft 338 kts
2026-05-04 14:26 54.61151 -1.71847 10906 ft 329 kts
2026-05-04 14:26 54.63371 -1.71135 10324 ft 321 kts
2026-05-04 14:27 54.65546 -1.70442 9693 ft 315 kts
2026-05-04 14:27 54.67682 -1.69764 9157 ft 310 kts
2026-05-04 14:27 54.69770 -1.69095 9024 ft 299 kts
2026-05-04 14:27 54.71693 -1.68145 9030 ft 286 kts 22°
2026-05-04 14:28 54.73445 -1.66663 8925 ft 275 kts 25°
2026-05-04 14:28 54.75113 -1.65170 8794 ft 266 kts 25°
2026-05-04 14:28 54.76693 -1.63742 8639 ft 258 kts 25°
2026-05-04 14:28 54.78254 -1.62324 8248 ft 252 kts 25°
2026-05-04 14:29 54.81344 -1.59520 7225 ft 249 kts 25°
2026-05-04 14:29 54.84383 -1.56765 6517 ft 247 kts 26°
2026-05-04 14:30 54.85901 -1.55387 6209 ft 245 kts 25°
2026-05-04 14:30 54.87413 -1.54004 5873 ft 244 kts 25°
2026-05-04 14:30 54.90407 -1.51251 5239 ft 242 kts 25°
2026-05-04 14:31 54.91883 -1.49885 5021 ft 237 kts 25°
2026-05-04 14:31 54.94677 -1.47270 4766 ft 220 kts 25°
2026-05-04 14:32 54.97288 -1.44807 4483 ft 209 kts 25°
2026-05-04 14:32 54.98551 -1.43610 4365 ft 204 kts 25°
2026-05-04 14:32 54.99781 -1.42436 4248 ft 200 kts 25°
2026-05-04 14:32 55.00991 -1.41279 4073 ft 198 kts 25°
2026-05-04 14:33 55.02191 -1.40129 3880 ft 197 kts 25°
2026-05-04 14:33 55.03390 -1.38976 3679 ft 196 kts 25°
2026-05-04 14:33 55.04581 -1.37827 3469 ft 196 kts 25°
2026-05-04 14:33 55.05822 -1.36968 3267 ft 189 kts 358°
2026-05-04 14:34 55.07087 -1.37275 3088 ft 182 kts 336°
2026-05-04 14:34 55.08240 -1.38102 3016 ft 181 kts 332°
2026-05-04 14:34 55.09368 -1.39059 3007 ft 180 kts 323°
2026-05-04 14:34 55.10157 -1.40666 3011 ft 175 kts 293°
2026-05-04 14:35 55.10435 -1.42677 3006 ft 167 kts 269°
2026-05-04 14:35 55.10224 -1.44583 3015 ft 159 kts 248°
2026-05-04 14:35 55.09770 -1.46319 2883 ft 156 kts 247°
2026-05-04 14:35 55.09318 -1.48035 2707 ft 155 kts 247°
2026-05-04 14:36 55.08874 -1.49724 2515 ft 155 kts 246°
2026-05-04 14:36 55.08418 -1.51457 2295 ft 155 kts 246°
2026-05-04 14:36 55.07970 -1.53159 2085 ft 154 kts 246°
2026-05-04 14:36 55.07532 -1.54823 1887 ft 153 kts 247°
2026-05-04 14:37 55.07095 -1.56478 1694 ft 147 kts 245°
2026-05-04 14:37 55.06676 -1.58069 1491 ft 143 kts 246°
2026-05-04 14:37 55.06254 -1.59666 1293 ft 143 kts 248°
2026-05-04 14:37 55.05840 -1.61237 1085 ft 145 kts 246°
2026-05-04 14:38 55.05423 -1.62816 889 ft 143 kts 246°
2026-05-04 14:38 55.05001 -1.64408 683 ft 143 kts 246°
2026-05-04 14:38 55.04589 -1.65980 484 ft 143 kts 244°
2026-05-04 14:38 55.04174 -1.67531 303 ft 143 kts 247°
2026-05-04 14:39 55.03791 -1.69103 476 ft 144 kts 248°
2026-05-04 14:39 55.03398 -1.70742 1281 ft 147 kts 248°
2026-05-04 14:39 55.02965 -1.72423 1867 ft 160 kts 248°
2026-05-04 14:40 55.01888 -1.76489 2490 ft 209 kts 244°
2026-05-04 14:40 55.00883 -1.78371 3198 ft 222 kts 211°
2026-05-04 14:40 54.99362 -1.78999 4035 ft 233 kts 179°
2026-05-04 14:40 54.97803 -1.78115 4749 ft 243 kts 149°
2026-05-04 14:41 54.96633 -1.76002 4961 ft 245 kts 125°
2026-05-04 14:41 54.95762 -1.73447 5005 ft 246 kts 121°
2026-05-04 14:41 54.94147 -1.68264 5006 ft 246 kts 114°
2026-05-04 14:42 54.94299 -1.62447 5014 ft 248 kts 71°
2026-05-04 14:42 54.94879 -1.59626 5009 ft 247 kts 64°
2026-05-04 14:42 54.95653 -1.56941 5009 ft 248 kts 61°
2026-05-04 14:43 54.96440 -1.54363 4961 ft 237 kts 60°
2026-05-04 14:43 54.97203 -1.51869 4816 ft 228 kts 60°
2026-05-04 14:43 54.97928 -1.49509 4691 ft 220 kts 60°
2026-05-04 14:43 54.98633 -1.47210 4557 ft 212 kts 60°
2026-05-04 14:44 54.99312 -1.44983 4412 ft 205 kts 60°
2026-05-04 14:44 54.99975 -1.42805 4220 ft 204 kts 60°
2026-05-04 14:44 55.00637 -1.40623 4045 ft 203 kts 60°
2026-05-04 14:44 55.01291 -1.38456 3845 ft 202 kts 60°
2026-05-04 14:45 55.02109 -1.36533 3646 ft 196 kts 31°
2026-05-04 14:45 55.03349 -1.35854 3429 ft 186 kts 350°
2026-05-04 14:45 55.04573 -1.36438 3193 ft 183 kts 333°
2026-05-04 14:45 55.05731 -1.37338 3033 ft 182 kts 331°
2026-05-04 14:46 55.06864 -1.38277 3008 ft 182 kts 330°
2026-05-04 14:46 55.08003 -1.39229 3008 ft 181 kts 330°
2026-05-04 14:46 55.09115 -1.40253 3002 ft 178 kts 317°
2026-05-04 14:46 55.09837 -1.41920 3006 ft 174 kts 292°
2026-05-04 14:47 55.10099 -1.43961 3030 ft 168 kts 269°
2026-05-04 14:47 55.09882 -1.45882 2920 ft 159 kts 247°
2026-05-04 14:47 55.09429 -1.47601 2752 ft 155 kts 248°
2026-05-04 14:47 55.08991 -1.49273 2564 ft 153 kts 247°
2026-05-04 14:48 55.08549 -1.50955 2374 ft 151 kts 247°
2026-05-04 14:48 55.08110 -1.52625 2162 ft 151 kts 245°
2026-05-04 14:48 55.07676 -1.54274 1956 ft 149 kts 247°
2026-05-04 14:48 55.07248 -1.55898 1756 ft 145 kts 246°
2026-05-04 14:49 55.06829 -1.57491 1567 ft 143 kts 246°
2026-05-04 14:49 55.06413 -1.59067 1372 ft 144 kts 246°
2026-05-04 14:49 55.06136 -1.60114 1236 ft 142 kts 248°
2026-05-04 14:49 55.05723 -1.61680 1030 ft 144 kts 247°
2026-05-04 14:50 55.05305 -1.63260 831 ft 142 kts 246°
2026-05-04 14:50 55.04756 -1.65340 578 ft 141 kts 245°
2026-05-04 14:50 55.04350 -1.66900 375 ft 141 kts 246°
2026-05-04 14:50 55.04076 -1.67905 270 ft 133 kts 247°
2026-05-04 14:51 55.03734 -1.69204 254 ft 92 kts 244°
2026-05-04 14:51 55.03548 -1.69897 261 ft 32 kts 244°
2026-05-04 14:51 55.03474 -1.70180 264 ft 17 kts 245°
2026-05-04 14:51 55.03424 -1.70366 266 ft 17 kts 244°
2026-05-04 14:52 55.03388 -1.70551 267 ft 16 kts 275°
2026-05-04 14:52 55.03486 -1.70645 267 ft 11 kts
2026-05-04 14:52 55.03517 -1.70643 267 ft 5 kts
2026-05-04 14:52 55.03539 -1.70642 267 ft 0 kts
2026-05-04 14:53 55.03540 -1.70641 267 ft 1 kts
2026-05-04 14:53 55.03566 -1.70645 267 ft 5 kts 346°
2026-05-04 14:53 55.03593 -1.70703 267 ft 8 kts 282°
2026-05-04 14:54 55.03599 -1.70817 267 ft 9 kts 278°
2026-05-04 14:54 55.03648 -1.70851 267 ft 6 kts 358°
2026-05-04 14:54 55.03669 -1.70846 267 ft 0 kts
2026-05-04 14:54 55.03675 -1.70845 267 ft 0 kts